GW1238 Weather Reports


time (UTC)temp
C
wind
direction
speed
KPH
gust
KPH
rain 1hr
cm
rain 24hr
cm
rain mn
cm
humidity
%
barometer
mb
20260905062632 25 323 1.6 4.8 0.00 0.00 0.00 91 1016.9
20260905062131 26 1 1.6 3.2 0.00 0.00 0.00 91 1016.6
20260905061626 25 330 3.2 3.2 0.00 0.00 0.00 91 1016.7
20260905061126 26 337 1.6 3.2 0.00 0.00 0.00 91 1016.8
20260905060622 26 347 3.2 3.2 0.00 0.00 0.00 90 1016.7
20260905060118 26 341 3.2 3.2 0.00 0.00 0.00 90 1016.7
20260905055616 26 328 3.2 3.2 0.00 0.00 0.00 90 1016.9
20260905055111 26 337 3.2 3.2 0.00 0.00 0.00 90 1016.9
20260905054607 26 358 3.2 3.2 0.00 0.00 0.00 90 1016.8
20260905054102 26 336 1.6 3.2 0.00 0.00 0.00 90 1016.9
20260905053601 26 338 1.6 3.2 0.00 0.00 0.00 90 1016.9
20260905053057 26 343 3.2 3.2 0.00 0.00 0.00 89 1017.1
20260905052556 26 356 1.6 3.2 0.00 0.00 0.00 90 1016.9
20260905052051 26 342 1.6 3.2 0.00 0.00 0.00 90 1017.0
20260905051547 26 338 1.6 4.8 0.00 0.00 0.00 90 1017.0
20260905051044 26 337 1.6 4.8 0.00 0.00 0.00 91 1017.1
20260905050539 26 331 1.6 3.2 0.00 0.00 0.00 91 1017.0
20260905050031 26 343 1.6 3.2 0.00 0.00 0.00 91 1017.1
20260905045531 26 340 3.2 3.2 0.00 0.00 0.00 91 1017.0
20260905045026 26 342 3.2 3.2 0.00 0.00 0.00 91 1016.7
20260905044526 26 331 3.2 3.2 0.00 0.00 0.00 91 1016.9
20260905044020 26 338 1.6 4.8 0.00 0.00 0.00 90 1016.8
20260905043520 26 356 0.0 1.6 0.00 0.00 0.00 91 1017.0
20260905043015 26 333 3.2 3.2 0.00 0.00 0.00 91 1017.0
20260905042514 26 339 3.2 3.2 0.00 0.00 0.00 91 1017.1
20260905042009 26 334 3.2 3.2 0.00 0.00 0.00 90 1017.1
20260905041505 26 353 1.6 1.6 0.00 0.00 0.00 91 1017.0
20260905041000 26 332 1.6 3.2 0.00 0.00 0.00 91 1017.1
20260905040459 26 343 1.6 3.2 0.00 0.00 0.00 91 1017.3
20260905035958 27 337 3.2 3.2 0.00 0.00 0.00 91 1017.3
20260905035454 26 336 3.2 3.2 0.00 0.00 0.00 91 1017.5
20260905034951 27 338 3.2 3.2 0.00 0.00 0.00 90 1017.5
20260905034446 27 331 1.6 3.2 0.00 0.00 0.00 89 1017.6
20260905033945 27 335 1.6 3.2 0.00 0.00 0.00 89 1017.5
20260905033440 27 327 1.6 3.2 0.00 0.00 0.00 90 1017.4
20260905032940 27 328 1.6 1.6 0.00 0.00 0.00 89 1017.6
20260905032435 27 344 1.6 3.2 0.00 0.00 0.00 89 1017.8
20260905031930 27 338 1.6 3.2 0.00 0.00 0.00 89 1017.7
20260905031426 27 12 1.6 1.6 0.00 0.00 0.00 89 1017.5
20260905030921 27 355 0.0 1.6 0.00 0.00 0.00 89 1017.7
20260905030417 27 328 1.6 3.2 0.00 0.00 0.00 89 1017.8
20260905025915 27 341 1.6 3.2 0.00 0.00 0.00 90 1017.8
20260905025411 27 340 1.6 3.2 0.00 0.00 0.00 90 1018.0
20260905024907 27 353 1.6 3.2 0.00 0.00 0.00 90 1017.8
20260905024402 27 339 3.2 3.2 0.00 0.00 0.00 89 1018.0
20260905023857 27 344 3.2 4.8 0.00 0.00 0.00 89 1018.1
20260905023347 27 340 3.2 4.8 0.00 0.00 0.00 88 1017.9
20260905022846 27 334 3.2 4.8 0.00 0.00 0.00 88 1018.0
20260905022342 27 357 3.2 4.8 0.00 0.00 0.00 87 1018.0
20260905021841 27 346 3.2 4.8 0.00 0.00 0.00 88 1018.0
20260905021337 27 331 3.2 4.8 0.00 0.00 0.00 87 1017.8
20260905020832 27 354 3.2 3.2 0.00 0.00 0.00 86 1018.0
20260905020327 27 341 3.2 3.2 0.00 0.00 0.00 86 1017.8
20260905015826 27 340 1.6 3.2 0.00 0.00 0.00 86 1017.8
20260905015325 27 341 1.6 4.8 0.00 0.00 0.00 84 1018.0
20260905014824 27 338 1.6 3.2 0.00 0.00 0.00 85 1018.0
20260905014320 28 350 1.6 1.6 0.00 0.00 0.00 84 1017.7
20260905013815 28 359 0.0 0.0 0.00 0.00 0.00 84 1018.0
20260905013312 28 328 1.6 1.6 0.00 0.00 0.00 83 1018.0
20260905012806 28 330 3.2 3.2 0.00 0.00 0.00 84 1017.9
20260905012305 28 346 1.6 3.2 0.00 0.00 0.00 84 1017.8
20260905011758 28 1 1.6 3.2 0.00 0.00 0.00 83 1017.8
20260905011254 28 350 3.2 3.2 0.00 0.00 0.00 83 1017.6
20260905010749 28 340 3.2 4.8 0.00 0.00 0.00 83 1017.7
20260905010244 28 329 3.2 3.2 0.00 0.00 0.00 82 1017.3
20260905005741 28 347 1.6 1.6 0.00 0.00 0.00 82 1017.5
20260905005236 28 338 1.6 3.2 0.00 0.00 0.00 82 1017.6
20260905004736 28 338 1.6 3.2 0.00 0.00 0.00 81 1017.5
20260905004231 28 337 3.2 3.2 0.00 0.00 0.00 81 1017.4
20260905003731 28 336 1.6 3.2 0.00 0.00 0.00 82 1017.4
20260905003227 28 355 1.6 3.2 0.00 0.00 0.00 81 1017.4
20260905002722 28 342 3.2 4.8 0.00 0.00 0.00 81 1017.5
20260905002222 28 326 3.2 3.2 0.00 0.00 0.00 81 1017.3
20260905001717 29 339 3.2 3.2 0.00 0.00 0.00 80 1017.3
20260905001216 29 335 1.6 3.2 0.00 0.00 0.00 80 1017.3
20260905000712 29 326 1.6 4.8 0.00 0.00 0.00 81 1017.2
20260905000207 30 331 1.6 3.2 0.00 0.00 0.00 79 1017.4
20260904235707 30 331 1.6 3.2 0.00 0.00 0.00 78 1017.1
20260904235203 30 329 1.6 1.6 0.00 0.00 0.00 77 1017.3
20260904234657 30 342 1.6 3.2 0.00 0.00 0.00 77 1017.1
20260904234153 30 10 1.6 1.6 0.00 0.00 0.00 77 1017.2
20260904233648 30 344 1.6 3.2 0.00 0.00 0.00 75 1016.8
20260904233144 31 337 1.6 3.2 0.00 0.00 0.00 75 1016.9
20260904232641 31 340 1.6 3.2 0.00 0.00 0.00 74 1016.7
20260904232136 31 332 3.2 3.2 0.00 0.00 0.00 74 1016.7
20260904231632 31 347 1.6 3.2 0.00 0.00 0.00 72 1016.7
20260904231127 31 342 1.6 3.2 0.00 0.00 0.00 71 1016.9
20260904230626 31 325 1.6 3.2 0.00 0.00 0.00 70 1016.7
20260904230122 32 336 1.6 4.8 0.00 0.00 0.00 69 1016.9
20260904225619 32 338 1.6 1.6 0.00 0.00 0.00 68 1016.5
20260904225114 32 357 1.6 3.2 0.00 0.00 0.00 67 1016.7
20260904224609 32 3 1.6 1.6 0.00 0.00 0.00 65 1016.8
20260904224104 33 317 3.2 3.2 0.00 0.00 0.00 65 1016.6
20260904223603 33 31 1.6 3.2 0.00 0.00 0.00 61 1016.8
20260904223058 34 357 1.6 4.8 0.00 0.00 0.00 60 1016.8
20260904222554 34 337 3.2 3.2 0.00 0.00 0.00 59 1016.5
20260904222049 35 24 3.2 4.8 0.00 0.00 0.00 57 1016.6
20260904221544 34 327 4.8 4.8 0.00 0.00 0.00 58 1016.7
20260904221039 34 341 3.2 4.8 0.00 0.00 0.00 58 1016.5
20260904220538 35 316 1.6 4.8 0.00 0.00 0.00 58 1016.5
20260904220034 35 129 1.6 4.8 0.00 0.00 0.00 58 1016.4
20260904215533 34 308 3.2 6.4 0.00 0.00 0.00 58 1016.4
20260904215030 34 334 6.4 9.7 0.00 0.00 0.00 58 1016.4
20260904214525 34 36 1.6 4.8 0.00 0.00 0.00 59 1016.5
20260904214020 34 293 4.8 4.8 0.00 0.00 0.00 59 1016.7
20260904213518 34 322 4.8 6.4 0.00 0.00 0.00 58 1016.4
20260904213010 35 300 3.2 6.4 0.00 0.00 0.00 57 1016.6
20260904212509 35 73 1.6 9.7 0.00 0.00 0.00 56 1016.8
20260904212004 35 103 3.2 4.8 0.00 0.00 0.00 56 1016.6
20260904211503 36 123 0.0 3.2 0.00 0.00 0.00 50 1016.7
20260904210959 36 96 0.0 3.2 0.00 0.00 0.00 51 1016.8
20260904210458 35 108 3.2 4.8 0.00 0.00 0.00 56 1016.8
20260904205954 35 105 4.8 4.8 0.00 0.00 0.00 57 1016.9
20260904205449 35 103 4.8 6.4 0.00 0.00 0.00 56 1016.8
20260904204947 35 97 6.4 9.7 0.00 0.00 0.00 59 1016.9
20260904204442 35 105 6.4 9.7 0.00 0.00 0.00 54 1017.1
20260904203938 36 325 3.2 6.4 0.00 0.00 0.00 50 1017.0
20260904203434 35 139 0.0 4.8 0.00 0.00 0.00 52 1017.3
20260904202930 36 135 3.2 4.8 0.00 0.00 0.00 57 1017.2
20260904202426 36 150 1.6 3.2 0.00 0.00 0.00 52 1017.2
20260904201922 39 177 0.0 1.6 0.00 0.00 0.00 47 1017.3
20260904201417 39 175 1.6 3.2 0.00 0.00 0.00 45 1017.3
20260904200912 39 184 0.0 3.2 0.00 0.00 0.00 45 1017.3
20260904200410 40 190 1.6 3.2 0.00 0.00 0.00 44 1017.5
20260904195906 40 183 1.6 1.6 0.00 0.00 0.00 47 1017.5
20260904195404 39 203 1.6 3.2 0.00 0.00 0.00 43 1017.7
20260904194858 40 183 1.6 3.2 0.00 0.00 0.00 45 1017.7
20260904194358 40 154 0.0 0.0 0.00 0.00 0.00 45 1017.7
20260904193853 40 156 0.0 0.0 0.00 0.00 0.00 44 1017.8
20260904193348 39 168 0.0 0.0 0.00 0.00 0.00 47 1017.9
20260904192844 37 181 1.6 3.2 0.00 0.00 0.00 52 1018.0
20260904192339 36 152 0.0 1.6 0.00 0.00 0.00 53 1018.0
20260904191835 35 152 1.6 3.2 0.00 0.00 0.00 54 1018.4
20260904191332 35 140 3.2 4.8 0.00 0.00 0.00 52 1018.5
20260904190828 35 135 3.2 4.8 0.00 0.00 0.00 55 1018.5
20260904190324 37 172 1.6 1.6 0.00 0.00 0.00 51 1018.5
20260904185819 35 139 0.0 1.6 0.00 0.00 0.00 54 1018.7
20260904185315 34 127 1.6 1.6 0.00 0.00 0.00 59 1018.5
20260904184814 34 117 1.6 3.2 0.00 0.00 0.00 58 1018.9
20260904184309 33 117 3.2 4.8 0.00 0.00 0.00 58 1018.9
20260904183805 33 118 1.6 4.8 0.00 0.00 0.00 59 1019.1
20260904183306 33 102 3.2 6.4 0.00 0.00 0.00 60 1019.1
20260904182801 33 91 4.8 4.8 0.00 0.00 0.00 59 1019.1
20260904182256 33 110 6.4 6.4 0.00 0.00 0.00 61 1019.3
20260904181751 33 118 3.2 4.8 0.00 0.00 0.00 59 1019.2
20260904181251 33 97 3.2 4.8 0.00 0.00 0.00 59 1019.2
20260904180747 34 125 1.6 1.6 0.00 0.00 0.00 58 1019.2
20260904180242 34 126 0.0 3.2 0.00 0.00 0.00 59 1019.4
20260904175741 35 133 0.0 0.0 0.00 0.00 0.00 58 1019.3
20260904175239 33 130 0.0 1.6 0.00 0.00 0.00 63 1019.5
20260904174734 33 125 1.6 1.6 0.00 0.00 0.00 63 1019.3
20260904174230 33 115 1.6 3.2 0.00 0.00 0.00 63 1019.7
20260904173726 33 128 1.6 1.6 0.00 0.00 0.00 62 1019.9
20260904173226 33 129 1.6 1.6 0.00 0.00 0.00 64 1019.7
20260904172723 33 129 1.6 1.6 0.00 0.00 0.00 66 1019.7
20260904172221 32 128 1.6 3.2 0.00 0.00 0.00 64 1019.9
20260904171717 32 119 3.2 3.2 0.00 0.00 0.00 68 1019.9
20260904171212 32 116 3.2 3.2 0.00 0.00 0.00 65 1019.9
20260904170708 32 112 3.2 4.8 0.00 0.00 0.00 68 1020.3
20260904170204 32 113 3.2 4.8 0.00 0.00 0.00 69 1020.0
20260904165703 32 117 3.2 3.2 0.00 0.00 0.00 69 1020.3
20260904165202 32 122 3.2 4.8 0.00 0.00 0.00 71 1020.1
20260904164657 32 127 1.6 3.2 0.00 0.00 0.00 69 1020.3
20260904164152 32 124 3.2 3.2 0.00 0.00 0.00 71 1020.2
20260904163648 33 180 1.6 3.2 0.00 0.00 0.00 67 1020.4
20260904163143 33 189 3.2 3.2 0.00 0.00 0.00 69 1020.2
20260904162642 32 185 3.2 3.2 0.00 0.00 0.00 70 1020.4
20260904162137 32 174 3.2 4.8 0.00 0.00 0.00 72 1020.5
20260904161633 31 175 3.2 3.2 0.00 0.00 0.00 72 1020.7
20260904161127 31 162 3.2 3.2 0.00 0.00 0.00 72 1020.6
20260904160624 31 161 3.2 4.8 0.00 0.00 0.00 73 1020.6
20260904160119 31 150 1.6 3.2 0.00 0.00 0.00 72 1020.5
20260904155614 31 150 3.2 3.2 0.00 0.00 0.00 75 1020.6
20260904155108 30 137 3.2 4.8 0.00 0.00 0.00 74 1020.6
20260904154601 31 140 3.2 4.8 0.00 0.00 0.00 74 1020.6
20260904154056 31 153 3.2 4.8 0.00 0.00 0.00 72 1020.6
20260904153555 31 161 3.2 3.2 0.00 0.00 0.00 71 1020.7
20260904153052 31 156 3.2 3.2 0.00 0.00 0.00 72 1020.6
20260904152548 32 164 1.6 3.2 0.00 0.00 0.00 69 1020.8
20260904152043 32 183 1.6 3.2 0.00 0.00 0.00 67 1020.7
20260904151538 32 190 1.6 1.6 0.00 0.00 0.00 68 1020.7
20260904151037 32 201 1.6 1.6 0.00 0.00 0.00 68 1020.8
20260904150532 32 185 3.2 3.2 0.00 0.00 0.00 68 1020.6
20260904150027 32 187 1.6 3.2 0.00 0.00 0.00 69 1020.8
20260904145526 32 190 1.6 3.2 0.00 0.00 0.00 68 1020.7
20260904145022 32 180 1.6 1.6 0.00 0.00 0.00 69 1020.9
20260904144518 31 171 1.6 1.6 0.00 0.00 0.00 71 1020.7
20260904144014 31 142 0.0 0.0 0.00 0.00 0.00 72 1020.6
20260904143509 30 128 1.6 3.2 0.00 0.00 0.00 72 1020.8
20260904143006 30 104 0.0 1.6 0.00 0.00 0.00 72 1020.8
20260904142502 32 157 0.0 0.0 0.00 0.00 0.00 70 1020.7
20260904142001 31 161 0.0 1.6 0.00 0.00 0.00 73 1020.6
20260904141456 31 109 1.6 1.6 0.00 0.00 0.00 70 1020.6
20260904140953 31 142 0.0 0.0 0.00 0.00 0.00 72 1020.6
20260904140452 30 119 0.0 1.6 0.00 0.00 0.00 76 1020.5
20260904135951 30 141 1.6 1.6 0.00 0.00 0.00 74 1020.3
20260904135446 30 147 1.6 1.6 0.00 0.00 0.00 76 1020.4
20260904134942 30 154 1.6 1.6 0.00 0.00 0.00 79 1020.3
20260904134442 29 149 3.2 3.2 0.00 0.00 0.00 79 1020.5
20260904133937 30 154 1.6 3.2 0.00 0.00 0.00 77 1020.4
20260904133431 31 164 1.6 3.2 0.00 0.00 0.00 76 1020.3
20260904132927 31 168 1.6 1.6 0.00 0.00 0.00 76 1020.3
20260904132422 30 170 0.0 1.6 0.00 0.00 0.00 78 1020.2
20260904131921 31 212 3.2 3.2 0.00 0.00 0.00 77 1020.4
20260904131417 31 175 1.6 1.6 0.00 0.00 0.00 80 1020.5
20260904130913 30 161 0.0 0.0 0.00 0.00 0.00 82 1020.3
20260904130412 29 135 0.0 1.6 0.00 0.00 0.00 82 1020.4
20260904125907 29 145 0.0 0.0 0.00 0.00 0.00 84 1020.5
20260904125404 28 133 0.0 3.2 0.00 0.00 0.00 87 1020.4
20260904124902 28 129 0.0 1.6 0.00 0.00 0.00 86 1020.5
20260904124359 28 128 0.0 0.0 0.00 0.00 0.00 89 1020.4
20260904123854 27 147 0.0 0.0 0.00 0.00 0.00 94 1020.5
20260904123349 26 134 0.0 0.0 0.00 0.00 0.00 95 1020.5
20260904122845 25 342 1.6 1.6 0.00 0.00 0.00 95 1020.5
20260904122344 25 51 0.0 0.0 0.00 0.00 0.00 96 1020.5
20260904121839 25 353 1.6 3.2 0.00 0.00 0.00 96 1020.4
20260904121335 25 335 1.6 3.2 0.00 0.00 0.00 96 1020.4
20260904120832 24 341 1.6 3.2 0.00 0.00 0.00 96 1020.2
20260904120327 24 343 1.6 3.2 0.00 0.00 0.00 97 1020.3
20260904115822 24 341 1.6 3.2 0.00 0.00 0.00 97 1020.3
20260904115317 23 340 3.2 3.2 0.00 0.00 0.00 97 1020.2
20260904114817 23 343 3.2 3.2 0.00 0.00 0.00 97 1020.3
20260904114312 23 338 1.6 3.2 0.00 0.00 0.00 98 1020.0
20260904113807 23 337 1.6 3.2 0.00 0.00 0.00 97 1020.0
20260904113306 23 330 1.6 3.2 0.00 0.00 0.00 98 1020.1
20260904112801 23 345 1.6 3.2 0.00 0.00 0.00 98 1020.0
20260904112256 23 340 1.6 3.2 0.00 0.00 0.00 98 1020.1
20260904111752 23 342 1.6 3.2 0.00 0.00 0.00 98 1020.1
20260904111248 23 336 3.2 3.2 0.00 0.00 0.00 98 1020.1
20260904110743 23 355 3.2 4.8 0.00 0.00 0.00 98 1019.8
20260904110242 23 334 3.2 3.2 0.00 0.00 0.00 98 1020.0
20260904105737 23 357 1.6 3.2 0.00 0.00 0.00 98 1019.7
20260904105232 23 356 3.2 3.2 0.00 0.00 0.00 98 1019.8
20260904104728 23 1 3.2 3.2 0.00 0.00 0.00 97 1019.7
20260904104223 23 337 3.2 3.2 0.00 0.00 0.00 97 1019.4
20260904103720 23 334 3.2 3.2 0.00 0.00 0.00 97 1019.5
20260904103214 23 339 3.2 4.8 0.00 0.00 0.00 97 1019.5
20260904102710 23 336 3.2 3.2 0.00 0.00 0.00 97 1019.4
20260904102205 23 336 3.2 3.2 0.00 0.00 0.00 97 1019.3
20260904101702 23 327 1.6 3.2 0.00 0.00 0.00 97 1019.4
20260904101157 23 0 1.6 3.2 0.00 0.00 0.00 97 1019.5
20260904100653 23 341 3.2 3.2 0.00 0.00 0.00 97 1019.2
20260904100148 23 333 3.2 3.2 0.00 0.00 0.00 96 1019.2
20260904095642 23 355 1.6 3.2 0.00 0.00 0.00 96 1019.2
20260904095138 23 352 1.6 3.2 0.00 0.00 0.00 96 1019.2
20260904094632 23 340 3.2 3.2 0.00 0.00 0.00 96 1019.5
20260904094127 23 337 3.2 3.2 0.00 0.00 0.00 95 1019.4
20260904093624 23 337 1.6 4.8 0.00 0.00 0.00 95 1019.0
20260904093124 24 333 3.2 3.2 0.00 0.00 0.00 95 1019.2
20260904092620 24 338 1.6 3.2 0.00 0.00 0.00 95 1019.1
20260904092116 23 324 3.2 3.2 0.00 0.00 0.00 95 1019.2
20260904091612 24 334 3.2 3.2 0.00 0.00 0.00 95 1019.1
20260904091111 24 341 3.2 3.2 0.00 0.00 0.00 95 1019.1
20260904090607 24 344 3.2 3.2 0.00 0.00 0.00 95 1019.1
20260904085557 24 346 1.6 3.2 0.00 0.00 0.00 95 1019.0
20260904085057 24 322 3.2 3.2 0.00 0.00 0.00 95 1018.9
20260904084552 23 341 3.2 3.2 0.00 0.00 0.00 95 1019.0
20260904084049 24 338 3.2 3.2 0.00 0.00 0.00 95 1019.0
20260904083544 24 337 3.2 3.2 0.00 0.00 0.00 95 1019.1
20260904083040 24 344 1.6 3.2 0.00 0.00 0.00 95 1018.8
20260904082535 24 336 3.2 3.2 0.00 0.00 0.00 95 1019.1
20260904082030 24 320 1.6 3.2 0.00 0.00 0.00 95 1018.9
20260904081525 24 349 1.6 3.2 0.00 0.00 0.00 95 1019.1
20260904081021 24 324 3.2 3.2 0.00 0.00 0.00 95 1019.0
20260904080517 24 339 1.6 4.8 0.00 0.00 0.00 95 1018.8
20260904080013 24 340 3.2 3.2 0.00 0.00 0.00 95 1019.0
20260904075509 24 336 3.2 3.2 0.00 0.00 0.00 95 1018.8
20260904075009 24 346 3.2 3.2 0.00 0.00 0.00 95 1018.7
20260904074502 25 322 3.2 3.2 0.00 0.00 0.00 95 1018.8
20260904073957 25 334 1.6 3.2 0.00 0.00 0.00 95 1018.9
20260904073453 25 339 1.6 3.2 0.00 0.00 0.00 95 1018.9
20260904072948 25 340 3.2 3.2 0.00 0.00 0.00 95 1018.5
20260904072444 24 342 1.6 3.2 0.00 0.00 0.00 95 1018.8
20260904071938 25 350 1.6 3.2 0.00 0.00 0.00 95 1018.7
20260904071434 25 329 3.2 3.2 0.00 0.00 0.00 95 1018.8
20260904070929 25 351 1.6 3.2 0.00 0.00 0.00 95 1018.7
20260904070428 25 352 1.6 3.2 0.00 0.00 0.00 95 1018.9
20260904065923 25 4 1.6 3.2 0.00 0.00 0.00 95 1018.8
20260904065419 25 337 3.2 3.2 0.00 0.00 0.00 94 1018.9
20260904064918 25 340 3.2 3.2 0.00 0.00 0.00 95 1018.9
20260904064414 25 330 3.2 3.2 0.00 0.00 0.00 94 1019.1
20260904063909 25 328 1.6 3.2 0.00 0.00 0.00 95 1018.9
20260904063406 25 322 3.2 3.2 0.00 0.00 0.00 94 1018.9